Starlink 31638

operational
NORAD ID: 59489 Int'l Des: 2024-071 Owner: SPXS Country: US Constellation: starlink
LEOCIRCULAR

Über Starlink 31638

Beschreibung wird geladen...

Live-Position

3D-Globus wird geladen...

Nächste Überflüge

Höhenverlauf

Altitude vs Time

uPlot chart will show altitude changes over time

Zweizeiliger Elementsatz

1 59489U 24071F 26062.26061406 .00000023 00000-0 10371-4 0 9991
2 59489 43.0061 15.9398 0001271 261.1166 98.9542 15.27587088107220
Epoch: 3. März 2026 • Age: 21 hours

Aktueller Status

Höhe 490.2 km
Geschwindigkeit 7.62 km/s
Subsatellitenpunkt -29.66°S, 107.64°E
Startdatum 13. Apr. 2024
Alter 1.8 years
Typ internet

Technische Details

Klassifizierung Payload
Masse 730.00 kg
Trockenmasse 700.00 kg
Gesamtmasse 730.00 kg
Länge 0.30 m
Durchmesser 4.10 m
Spannweite 29.00 m
Form Box + pan
Hersteller SPXS
Bus-Typ Starlink V2M
Phasenstatus In Orbit
Besitzer/Staat SPXS/US

Große Konstellationen

Loading constellations...